Location: Newark
(41.7772°N, 74.7403°W)
Time: 05:17:48
(UTC+00:00)

Vanguard 3 - All Passes

Search period start: 06 June 2020 00:00
Search period end: 16 June 2020 00:00
Orbit: 509 x 3261 km, 33.3° (Epoch: 05 June)

Date Brightness Start Highest point End Pass type
(mag) Time Alt. Az. Time Alt. Az. Time Alt. Az.
06 Jun - 03:21:31 10° S 03:35:28 25° SE 03:48:34 10° E visible
06 Jun - 05:31:44 10° SW 05:50:07 48° SSE 06:04:19 10° E visible
06 Jun - 07:46:58 10° WSW 08:05:15 61° S 08:16:50 10° ESE visible
06 Jun - 10:04:22 10° W 10:19:03 50° SSW 10:27:37 10° SE daylight
06 Jun - 12:22:47 10° W 12:30:16 20° SW 12:35:33 10° S daylight
07 Jun - 02:11:07 10° SSE 02:20:01 15° SE 02:28:59 10° ESE visible
07 Jun - 04:16:48 10° SSW 04:33:53 39° SSE 04:48:57 10° E visible
07 Jun - 06:30:03 10° WSW 06:49:09 58° SSE 07:02:43 10° E visible
07 Jun - 08:46:43 10° W 09:04:00 59° S 09:14:28 10° ESE visible
07 Jun - 11:04:36 10° W 11:16:41 35° SSW 11:24:08 10° SSE daylight
08 Jun - 03:03:20 10° S 03:17:57 28° SE 03:32:19 10° E visible
08 Jun - 05:14:00 10° SW 05:32:44 52° SSE 05:48:00 10° E visible
08 Jun - 07:29:18 10° WSW 07:48:13 63° S 08:00:45 10° ESE visible
08 Jun - 09:46:45 10° W 10:02:18 49° SSW 10:11:37 10° SE daylight
08 Jun - 12:05:43 10° W 12:13:35 20° SW 12:19:14 10° S daylight
09 Jun - 01:52:08 10° SSE 02:02:32 18° SE 02:13:24 10° E visible
09 Jun - 03:59:04 10° SSW 04:16:22 42° SSE 04:32:28 10° E visible
09 Jun - 06:12:27 10° WSW 06:31:53 61° S 06:46:27 10° E visible
09 Jun - 08:29:04 10° W 08:47:04 59° SSW 08:58:23 10° ESE visible
09 Jun - 10:47:08 10° W 10:59:54 34° SW 11:08:00 10° SSE daylight
10 Jun - 02:45:29 10° SSW 03:00:23 32° SE 03:15:49 10° E visible
10 Jun - 04:56:28 10° SW 05:15:17 55° SSE 05:31:31 10° E visible
10 Jun - 07:11:42 10° WSW 07:31:05 64° S 07:44:32 10° ESE visible
10 Jun - 09:29:09 10° W 09:45:25 48° SSW 09:55:31 10° SE daylight
10 Jun - 11:48:39 10° W 11:56:47 19° SW 12:02:46 10° S daylight
11 Jun - 01:33:49 10° S 01:45:00 20° SE 01:57:14 10° E visible
11 Jun - 03:41:34 10° SW 03:58:47 46° SSE 04:15:48 10° E visible
11 Jun - 05:54:58 10° WSW 06:14:33 63° S 06:30:04 10° E visible
11 Jun - 08:11:27 10° W 08:30:01 59° SSW 08:42:14 10° ESE visible
11 Jun - 10:29:40 10° W 10:43:00 33° SW 10:51:44 10° SSE daylight
12 Jun - 02:27:56 10° SSW 02:42:46 35° SE 02:59:03 10° E visible
12 Jun - 04:39:07 10° SW 04:57:46 58° SSE 05:14:55 10° E visible
12 Jun - 06:54:13 10° W 07:13:51 65° S 07:28:14 10° ESE visible
12 Jun - 09:11:32 10° W 09:28:23 47° SSW 09:39:17 10° SE daylight
12 Jun - 11:31:37 10° W 11:39:51 18° SW 11:46:06 10° SSW daylight
13 Jun - 01:15:58 10° S 01:27:27 23° SE 01:40:41 10° E visible
13 Jun - 03:24:18 10° SW 03:41:11 49° SSE 03:59:00 10° E visible
13 Jun - 05:37:39 10° WSW 05:57:07 65° S 06:13:34 10° E visible
13 Jun - 07:53:55 10° W 08:12:50 58° SSW 08:25:56 10° ESE visible
13 Jun - 10:12:11 10° W 10:25:58 31° SW 10:35:20 10° SSE daylight
14 Jun - 00:08:08 10° SE 00:12:51 12° SE 00:17:58 10° ESE daylight
14 Jun - 02:10:39 10° SSW 02:25:10 37° SE 02:42:07 10° E visible
14 Jun - 04:21:57 10° WSW 04:40:13 60° SSE 04:58:11 10° E visible
14 Jun - 06:36:51 10° W 06:56:30 64° S 07:11:48 10° ESE visible
14 Jun - 08:53:59 10° W 09:11:13 45° SSW 09:22:56 10° SE visible
14 Jun - 11:14:41 10° W 11:22:48 17° SW 11:29:11 10° SSW daylight
15 Jun - 00:58:29 10° S 01:09:55 25° SE 01:23:50 10° E visible
15 Jun - 03:07:14 10° SW 03:23:35 52° SSE 03:42:02 10° E visible
15 Jun - 05:20:29 10° WSW 05:39:38 66° S 05:56:56 10° E visible
15 Jun - 07:36:27 10° W 07:55:33 57° SSW 08:09:31 10° SE visible
15 Jun - 09:54:46 10° W 10:08:47 30° SW 10:18:45 10° SSE daylight
